FW8073 Weather Reports


Display with metric or nautical units.
time (UTC)temp
F
wind
direction
speed
MPH
gust
MPH
rain 1hr
in
rain 24hr
in
rain mn
in
humidity
%
barometer
mb
20260903020628 82 222 2.0 2.0 0.00 0.00 0.00 90
20260903020128 82 232 1.0 4.0 0.00 0.00 0.00 89
20260903015623 82 226 4.0 5.0 0.00 0.00 0.00 89
20260903015119 82 229 3.0 4.0 0.00 0.00 0.00 89
20260903014618 82 234 2.0 5.0 0.00 0.00 0.00 89
20260903014118 82 218 3.0 4.0 0.00 0.00 0.00 89
20260903013613 82 213 4.0 4.0 0.00 0.00 0.00 88
20260903013107 82 230 2.0 4.0 0.00 0.00 0.00 88
20260903012606 82 191 2.0 4.0 0.00 0.00 0.00 88
20260903012106 82 226 4.0 5.0 0.00 0.00 0.00 88
20260903011605 82 234 3.0 5.0 0.00 0.00 0.00 87
20260903011105 82 225 2.0 4.0 0.00 0.00 0.00 87
20260903010601 82 231 3.0 4.0 0.00 0.00 0.00 87
20260903010059 82 235 2.0 4.0 0.00 0.00 0.00 88
20260903005554 83 238 2.0 4.0 0.00 0.00 0.00 86
20260903005049 83 237 2.0 4.0 0.00 0.00 0.00 86
20260903004544 83 234 2.0 2.0 0.00 0.00 0.00 85
20260903004040 83 233 2.0 2.0 0.00 0.00 0.00 85
20260903003535 84 233 2.0 4.0 0.00 0.00 0.00 84
20260903003030 84 222 3.0 4.0 0.00 0.00 0.00 83
20260903002525 84 231 3.0 4.0 0.00 0.00 0.00 84
20260903002019 85 228 2.0 2.0 0.00 0.00 0.00 83
20260903001514 85 231 2.0 2.0 0.00 0.00 0.00 82
20260903001013 85 218 2.0 4.0 0.00 0.00 0.00 81
20260903000509 86 229 1.0 2.0 0.00 0.00 0.00 80
20260903000008 86 231 2.0 5.0 0.00 0.00 0.00 81
20260902235502 86 223 3.0 7.0 0.00 0.00 0.00 79
20260902234957 86 236 3.0 9.0 0.00 0.00 0.00 79
20260902234451 86 255 7.0 9.0 0.00 0.00 0.00 78
20260902233950 87 236 2.0 4.0 0.00 0.00 0.00 79
20260902233449 87 230 2.0 5.0 0.00 0.00 0.00 77
20260902232944 87 226 6.0 7.0 0.00 0.00 0.00 76
20260902232439 88 237 4.0 9.0 0.00 0.00 0.00 77
20260902231938 88 231 3.0 5.0 0.00 0.00 0.00 76
20260902231433 88 248 4.0 5.0 0.00 0.00 0.00 74
20260902230928 89 242 4.0 9.0 0.00 0.00 0.00 73
20260902230428 89 238 6.0 9.0 0.00 0.00 0.00 73
20260902225922 89 231 5.0 7.0 0.00 0.00 0.00 71
20260902225417 90 259 7.0 11.0 0.00 0.00 0.00 70
20260902224916 90 207 7.0 11.0 0.00 0.00 0.00 71
20260902224415 90 196 8.0 9.0 0.00 0.00 0.00 70
20260902223913 90 220 12.0 15.0 0.00 0.00 0.00 69
20260902223413 90 228 8.0 13.0 0.00 0.00 0.00 70
20260902222908 90 240 9.0 11.0 0.00 0.00 0.00 69
20260902222406 90 229 7.0 9.0 0.00 0.00 0.00 70
20260902221905 91 232 7.0 11.0 0.00 0.00 0.00 69
20260902221405 91 253 11.0 15.0 0.00 0.00 0.00 68
20260902220900 91 220 9.0 11.0 0.00 0.00 0.00 68
20260902220400 91 233 6.0 7.0 0.00 0.00 0.00 68
20260902215855 91 258 10.0 13.0 0.00 0.00 0.00 66
20260902215350 91 222 6.0 9.0 0.00 0.00 0.00 68
20260902214846 91 247 10.0 13.0 0.00 0.00 0.00 67
20260902214345 92 239 7.0 7.0 0.00 0.00 0.00 66
20260902213840 92 222 7.0 9.0 0.00 0.00 0.00 67
20260902213336 92 246 7.0 9.0 0.00 0.00 0.00 65
20260902212834 92 257 7.0 11.0 0.00 0.00 0.00 65
20260902212331 91 249 5.0 7.0 0.00 0.00 0.00 66
20260902211827 92 284 7.0 9.0 0.00 0.00 0.00 65
20260902211322 92 249 12.0 15.0 0.00 0.00 0.00 63
20260902210818 92 229 11.0 18.0 0.00 0.00 0.00 63
20260902210312 91 233 7.0 15.0 0.00 0.00 0.00 64
20260902205810 91 235 9.0 15.0 0.00 0.00 0.00 63
20260902205306 93 260 11.0 18.0 0.00 0.00 0.00 61
20260902204800 93 275 7.0 9.0 0.00 0.00 0.00 65
20260902204255 93 227 4.0 4.0 0.00 0.00 0.00 63
20260902203751 93 205 7.0 9.0 0.00 0.00 0.00 63
20260902203251 93 205 7.0 9.0 0.00 0.00 0.00 63
20260902202745 93 241 4.0 7.0 0.00 0.00 0.00 62
20260902202242 93 228 7.0 9.0 0.00 0.00 0.00 62
20260902201738 93 234 7.0 9.0 0.00 0.00 0.00 62
20260902201237 93 265 11.0 13.0 0.00 0.00 0.00 61
20260902200733 92 227 8.0 11.0 0.00 0.00 0.00 62
20260902200228 93 261 9.0 9.0 0.00 0.00 0.00 61
20260902195724 93 264 8.0 15.0 0.00 0.00 0.00 61
20260902195223 93 275 6.0 7.0 0.00 0.00 0.00 64
20260902194723 93 229 5.0 9.0 0.00 0.00 0.00 62
20260902194218 92 242 4.0 7.0 0.00 0.00 0.00 62
20260902193713 92 238 7.0 11.0 0.00 0.00 0.00 62
20260902193209 93 223 7.0 9.0 0.00 0.00 0.00 59
20260902192707 93 255 10.0 11.0 0.00 0.00 0.00 59
20260902192206 93 229 3.0 5.0 0.00 0.00 0.00 62
20260902191701 93 226 9.0 13.0 0.00 0.00 0.00 61
20260902191155 93 256 6.0 7.0 0.00 0.00 0.00 61
20260902190651 93 228 8.0 9.0 0.00 0.00 0.00 60
20260902190146 94 259 7.0 9.0 0.00 0.00 0.00 59
20260902185641 93 231 9.0 11.0 0.00 0.00 0.00 60
20260902185137 93 258 8.0 9.0 0.00 0.00 0.00 60
20260902184632 93 246 11.0 13.0 0.00 0.00 0.00 58
20260902184127 93 266 11.0 13.0 0.00 0.00 0.00 59
20260902183623 93 223 10.0 18.0 0.00 0.00 0.00 58
20260902183120 93 222 11.0 13.0 0.00 0.00 0.00 59
20260902182615 93 235 17.0 18.0 0.00 0.00 0.00 60
20260902182112 92 224 6.0 7.0 0.00 0.00 0.00 63
20260902181608 92 232 5.0 11.0 0.00 0.00 0.00 62
20260902181106 92 205 9.0 13.0 0.00 0.00 0.00 62
20260902180601 92 231 11.0 15.0 0.00 0.00 0.00 62
20260902180057 92 262 9.0 18.0 0.00 0.00 0.00 61
20260902175557 92 245 5.0 11.0 0.00 0.00 0.00 64
20260902175053 92 241 6.0 11.0 0.00 0.00 0.00 64
20260902174549 92 295 11.0 18.0 0.00 0.00 0.00 61
20260902174044 92 231 13.0 16.0 0.00 0.00 0.00 60
20260902173544 93 232 10.0 11.0 0.00 0.00 0.00 63
20260902173038 92 230 9.0 15.0 0.00 0.00 0.00 63
20260902172533 92 229 10.0 15.0 0.00 0.00 0.00 65
20260902172028 92 231 8.0 9.0 0.00 0.00 0.00 66
20260902171524 92 234 7.0 15.0 0.00 0.00 0.00 64
20260902171020 92 232 8.0 13.0 0.00 0.00 0.00 65
20260902170514 91 264 10.0 20.0 0.00 0.00 0.00 64
20260902170010 91 245 9.0 13.0 0.00 0.00 0.00 66
20260902165509 91 235 9.0 11.0 0.00 0.00 0.00 67
20260902165004 91 224 13.0 16.0 0.00 0.00 0.00 66
20260902164459 91 224 13.0 16.0 0.00 0.00 0.00 66
20260902163958 90 246 6.0 7.0 0.00 0.00 0.00 71
20260902163454 90 246 6.0 7.0 0.00 0.00 0.00 71
20260902162951 90 246 6.0 7.0 0.00 0.00 0.00 71
20260902162446 90 246 6.0 7.0 0.00 0.00 0.00 71
20260902161941 89 234 15.0 20.0 0.00 0.00 0.00 70
20260902161436 89 234 15.0 20.0 0.00 0.00 0.00 70
20260902160932 89 234 15.0 20.0 0.00 0.00 0.00 70
20260902160427 89 237 8.0 9.0 0.00 0.00 0.00 71
20260902155925 88 272 9.0 11.0 0.00 0.00 0.00 75
20260902155421 88 225 9.0 9.0 0.00 0.00 0.00 75
20260902154914 87 228 5.0 7.0 0.00 0.00 0.00 77
20260902154410 87 226 6.0 7.0 0.00 0.00 0.00 77
20260902153909 87 253 7.0 9.0 0.00 0.00 0.00 75
20260902153408 86 219 7.0 9.0 0.00 0.00 0.00 78
20260902152904 87 247 7.0 7.0 0.00 0.00 0.00 77
20260902152400 87 247 7.0 7.0 0.00 0.00 0.00 77
20260902151856 87 213 5.0 5.0 0.00 0.00 0.00 77
20260902151351 87 238 6.0 9.0 0.00 0.00 0.00 76
20260902150851 87 230 7.0 9.0 0.00 0.00 0.00 77
20260902150347 86 251 6.0 7.0 0.00 0.00 0.00 78
20260902145846 86 218 11.0 15.0 0.00 0.00 0.00 78
20260902145342 86 244 6.0 7.0 0.00 0.00 0.00 80
20260902144837 85 255 5.0 5.0 0.00 0.00 0.00 79
20260902144333 85 242 4.0 5.0 0.00 0.00 0.00 81
20260902143828 85 239 10.0 11.0 0.00 0.00 0.00 79
20260902143328 85 244 9.0 15.0 0.00 0.00 0.00 79
20260902142824 85 248 7.0 9.0 0.00 0.00 0.00 81
20260902142320 84 239 6.0 7.0 0.00 0.00 0.00 81
20260902141815 84 222 7.0 7.0 0.00 0.00 0.00 82
20260902141310 84 232 5.0 7.0 0.00 0.00 0.00 83
20260902140804 83 244 4.0 7.0 0.00 0.00 0.00 85
20260902140259 83 237 6.0 7.0 0.00 0.00 0.00 85
20260902135758 83 241 5.0 5.0 0.00 0.00 0.00 85
20260902135254 83 258 5.0 5.0 0.00 0.00 0.00 85
20260902134754 82 238 5.0 5.0 0.00 0.00 0.00 86
20260902134249 82 231 2.0 4.0 0.00 0.00 0.00 87
20260902133745 82 241 7.0 9.0 0.00 0.00 0.00 87
20260902133244 81 237 4.0 5.0 0.00 0.00 0.00 89
20260902132739 81 241 4.0 7.0 0.00 0.00 0.00 90
20260902132235 80 249 3.0 4.0 0.00 0.00 0.00 90
20260902131730 80 253 4.0 5.0 0.00 0.00 0.00 91
20260902131227 79 232 5.0 5.0 0.00 0.00 0.00 91
20260902130726 79 233 5.0 7.0 0.00 0.00 0.00 92
20260902130222 78 247 5.0 7.0 0.00 0.00 0.00 93
20260902125717 78 240 4.0 5.0 0.00 0.00 0.00 95
20260902125213 77 265 5.0 5.0 0.00 0.00 0.00 97
20260902124709 76 244 4.0 5.0 0.00 0.00 0.00 99
20260902124210 75 244 2.0 4.0 0.00 0.00 0.00 99
20260902123705 75 245 2.0 2.0 0.00 0.00 0.00 99
20260902123201 74 233 1.0 2.0 0.00 0.00 0.00 99
20260902122700 74 239 0.0 2.0 0.00 0.00 0.00 99
20260902122156 74 237 1.0 2.0 0.00 0.00 0.00 99
20260902121651 73 213 2.0 2.0 0.00 0.00 0.00 99
20260902121150 73 233 1.0 2.0 0.00 0.00 0.00 99
20260902120647 73 239 0.0 2.0 0.00 0.00 0.00 99
20260902120143 73 237 0.0 2.0 0.00 0.00 0.00 99
20260902115637 73 234 0.0 2.0 0.00 0.00 0.00 99
20260902115134 73 232 0.0 0.0 0.00 0.00 0.00 99
20260902114629 73 237 0.0 0.0 0.00 0.00 0.00 99
20260902114129 73 236 0.0 0.0 0.00 0.00 0.00 99
20260902113625 72 236 0.0 0.0 0.00 0.00 0.00 99
20260902113120 72 236 0.0 0.0 0.00 0.00 0.00 99
20260902112615 72 236 0.0 0.0 0.00 0.00 0.00 99
20260902112112 72 236 0.0 0.0 0.00 0.00 0.00 99
20260902111608 72 235 0.0 0.0 0.00 0.00 0.00 99
20260902111103 72 235 0.0 0.0 0.00 0.00 0.00 99
20260902110559 72 235 0.0 0.0 0.00 0.00 0.00 99
20260902110055 72 235 0.0 0.0 0.00 0.00 0.00 99
20260902105555 72 236 0.0 0.0 0.00 0.00 0.00 99
20260902105054 72 236 0.0 0.0 0.00 0.00 0.00 99
20260902104551 72 236 0.0 0.0 0.00 0.00 0.00 99
20260902104050 72 236 0.0 0.0 0.00 0.00 0.00 99
20260902103540 72 235 0.0 0.0 0.00 0.00 0.00 99
20260902103035 72 235 0.0 0.0 0.00 0.00 0.00 99
20260902102532 72 236 0.0 2.0 0.00 0.00 0.00 99
20260902102029 72 237 0.0 0.0 0.00 0.00 0.00 99
20260902101524 73 234 0.0 4.0 0.00 0.00 0.00 99
20260902101022 73 234 0.0 0.0 0.00 0.00 0.00 99
20260902100518 72 236 0.0 0.0 0.00 0.00 0.00 99
20260902100017 73 236 0.0 0.0 0.00 0.00 0.00 99
20260902095517 73 235 0.0 0.0 0.00 0.00 0.00 99
20260902095016 73 237 0.0 0.0 0.00 0.00 0.00 99
20260902094512 73 237 0.0 0.0 0.00 0.00 0.00 99
20260902094007 73 237 0.0 0.0 0.00 0.00 0.00 99
20260902093502 73 238 0.0 0.0 0.00 0.00 0.00 99
20260902093001 73 242 0.0 0.0 0.00 0.00 0.00 99
20260902092457 73 244 0.0 0.0 0.00 0.00 0.00 99
20260902091956 73 235 0.0 0.0 0.00 0.00 0.00 99
20260902091452 73 235 0.0 0.0 0.00 0.00 0.00 99
20260902090948 74 235 0.0 0.0 0.00 0.00 0.00 99
20260902090443 74 235 0.0 0.0 0.00 0.00 0.00 99
20260902085942 74 235 0.0 0.0 0.00 0.00 0.00 99
20260902085437 74 235 0.0 0.0 0.00 0.00 0.00 99
20260902084933 74 235 0.0 0.0 0.00 0.00 0.00 99
20260902084429 75 235 0.0 0.0 0.00 0.00 0.00 99
20260902083924 75 234 0.0 0.0 0.00 0.00 0.00 99
20260902083419 75 233 0.0 0.0 0.00 0.00 0.00 99
20260902082919 75 241 0.0 0.0 0.00 0.00 0.00 99
20260902082414 75 243 0.0 0.0 0.00 0.00 0.00 99
20260902081911 75 243 0.0 0.0 0.00 0.00 0.00 99
20260902081407 75 243 0.0 0.0 0.00 0.00 0.00 99
20260902080903 75 243 0.0 0.0 0.00 0.00 0.00 99
20260902080359 75 244 0.0 0.0 0.00 0.00 0.00 99
20260902075858 75 244 0.0 0.0 0.00 0.00 0.00 99
20260902075354 75 244 0.0 0.0 0.00 0.00 0.00 99
20260902074849 76 244 0.0 0.0 0.00 0.00 0.00 99
20260902074345 76 244 0.0 0.0 0.00 0.00 0.00 99
20260902073839 76 244 0.0 0.0 0.00 0.00 0.00 99
20260902073336 77 243 0.0 2.0 0.00 0.00 0.00 99
20260902072832 77 249 1.0 2.0 0.00 0.00 0.00 99
20260902072326 77 247 2.0 4.0 0.00 0.00 0.00 99
20260902071824 77 250 3.0 7.0 0.00 0.00 0.00 99
20260902071318 77 248 1.0 2.0 0.00 0.00 0.00 99
20260902070815 77 242 0.0 0.0 0.00 0.00 0.00 99
20260902070314 77 243 2.0 4.0 0.00 0.00 0.00 99
20260902065813 77 242 0.0 0.0 0.00 0.00 0.00 99
20260902065308 77 243 0.0 0.0 0.00 0.00 0.00 99
20260902064804 78 243 0.0 0.0 0.00 0.00 0.00 99
20260902064300 78 233 2.0 2.0 0.00 0.00 0.00 99
20260902063755 78 249 2.0 4.0 0.00 0.00 0.00 99
20260902063249 78 242 1.0 2.0 0.00 0.00 0.00 99
20260902062749 78 240 2.0 5.0 0.00 0.00 0.00 99
20260902062244 78 240 2.0 4.0 0.00 0.00 0.00 99
20260902061743 78 227 3.0 4.0 0.00 0.00 0.00 99
20260902061238 79 226 3.0 5.0 0.00 0.00 0.00 99
20260902060735 79 228 3.0 5.0 0.00 0.00 0.00 98
20260902060231 79 238 2.0 5.0 0.00 0.00 0.00 98
20260902055726 79 243 2.0 5.0 0.00 0.00 0.00 98
20260902055222 79 243 3.0 5.0 0.00 0.00 0.00 98
20260902054717 79 234 2.0 5.0 0.00 0.00 0.00 98
20260902054213 79 240 3.0 5.0 0.00 0.00 0.00 99
20260902053708 79 245 4.0 5.0 0.00 0.00 0.00 99
20260902053208 79 248 7.0 9.0 0.00 0.00 0.00 99
20260902052707 79 244 3.0 4.0 0.00 0.00 0.00 99
20260902052203 79 255 2.0 4.0 0.00 0.00 0.00 99
20260902051702 78 232 4.0 5.0 0.00 0.00 0.00 99
20260902051156 78 244 3.0 4.0 0.00 0.00 0.00 99
20260902050651 78 242 0.0 4.0 0.00 0.00 0.00 99
20260902050147 79 235 4.0 4.0 0.00 0.00 0.00 99
20260902045641 79 227 3.0 7.0 0.00 0.00 0.00 99
20260902045137 79 233 3.0 4.0 0.00 0.00 0.00 99
20260902044632 79 245 4.0 5.0 0.00 0.00 0.00 99
20260902044128 79 243 3.0 4.0 0.00 0.00 0.00 99
20260902043622 79 250 4.0 7.0 0.00 0.00 0.00 99
20260902043118 79 236 4.0 5.0 0.00 0.00 0.00 99
20260902042612 78 235 7.0 9.0 0.00 0.00 0.00 99
20260902042108 78 242 5.0 7.0 0.00 0.00 0.00 99
20260902041607 78 222 6.0 7.0 0.00 0.00 0.00 99
20260902041102 78 245 5.0 5.0 0.00 0.00 0.00 99
20260902040601 78 235 4.0 5.0 0.00 0.00 0.00 99
20260902040056 78 232 3.0 5.0 0.00 0.00 0.00 99
20260902035555 77 232 4.0 5.0 0.00 0.24 0.24 99
20260902035050 77 247 4.0 7.0 0.00 0.24 0.24 99
20260902034550 77 241 3.0 5.0 0.00 0.24 0.24 99
20260902034049 77 246 4.0 7.0 0.00 0.24 0.24 99
20260902033548 77 226 3.0 7.0 0.00 0.24 0.24 99
20260902033043 77 232 3.0 7.0 0.05 0.24 0.24 99
20260902032542 77 231 4.0 5.0 0.05 0.24 0.24 99
20260902032037 77 236 4.0 4.0 0.00 0.23 0.23 99
20260902031532 77 240 3.0 5.0 0.00 0.23 0.23 99
20260902031028 77 231 4.0 4.0 0.00 0.23 0.23 99
20260902030523 77 239 2.0 4.0 0.00 0.23 0.23 99
20260902030022 77 230 3.0 5.0 0.00 0.23 0.23 99
20260902025517 77 231 3.0 4.0 0.00 0.23 0.23 99
20260902025012 77 232 3.0 5.0 0.00 0.23 0.23 99
20260902024508 77 235 2.0 4.0 0.00 0.23 0.23 99
20260902024002 77 241 2.0 4.0 0.00 0.23 0.23 99
20260902023458 77 216 3.0 7.0 0.00 0.23 0.23 99
20260902022957 77 229 3.0 4.0 0.00 0.23 0.23 99
20260902022452 77 231 0.0 2.0 0.00 0.23 0.23 99
20260902021948 77 227 0.0 2.0 0.00 0.23 0.23 99
20260902021443 77 237 0.0 2.0 0.00 0.23 0.23 99
20260902020938 77 237 0.0 0.0 0.00 0.23 0.23 99